Content
SEND FEEDBACK

Daily
Averages
Monthly
Summary
Thailand

BANGKOK, THAILAND


Home > Asia > Thailand
Elevation: 66 feet     Latitude: 13 44N     Longitude: 100 34E

WEATHER
 
SELECT A DAY
Number of Records: 246,107;   Date Range: 7/1/96 - 12/18/14
 
SHARE

PRINT THIS DATA

[ ← Previous Day ]
WEATHER ALMANAC - JANUARY 18, 2013
[ Next Day → ]
[ °C ]   °F
Weather ElementAverageHighLow
Temperature80.8 °F91.4 °F (4:00 pm)73 °F (7:00 am)
Dewpoint59.3 °F62.6 °F (4:00 am)57.2 °F (8:00 am)
Humidity48.4 %65 % (4:00 am)30 % (1:00 pm)
Barometer29.99 in30.06 in (8:00 am)29.89 in (2:30 pm)
Wind Speed7.4 mph13.8 mph (11:00 am)
Weather ElementAverage
Visibility5.6 mi
Wind DirectionENE (78.2 °)

Weather ElementTotal
Precipitation---
Cooling Degree Days17.2 (Base 65)
Growing Degree Days32.2 (Base 50)
Averaged from 49 records on January 18, 2013
WEATHER CONDITIONS BREAKOUT
WIND DIRECTION BREAKOUT
WEATHER BY HOUR - JANUARY 18, 2013
[ °C ]   °F
Local TimeTemperatureDewpointHumidityBarometerVisibilityWind DirectionWind SpeedGust SpeedPrecipitationEventsConditions
12:30 AM78.8 °F60.8 °F54 %30.01 inEast (90°)4.6 mphClear
1:00 AM77.0 °F60.8 °F57 %30.01 in6.2 miEast (90°)4.6 mphScattered Clouds
1:30 AM77.0 °F60.8 °F57 %30.01 in6.2 miENE (70°)4.6 mphScattered Clouds
2:00 AM77.0 °F60.8 °F57 %30.01 in6.2 miEast (80°)5.8 mphScattered Clouds
2:30 AM77.0 °F60.8 °F57 %29.98 in6.2 miEast (80°)10.4 mphScattered Clouds
3:00 AM77.0 °F60.8 °F57 %29.98 in6.2 miEast (100°)5.8 mphScattered Clouds
3:30 AM75.2 °F60.8 °F61 %29.98 in6.2 miENE (60°)4.6 mphScattered Clouds
4:00 AM75.2 °F62.6 °F65 %29.98 in5.6 miENE (60°)5.8 mphScattered Clouds
4:30 AM75.2 °F62.6 °F65 %30.01 in5.6 miENE (60°)8.1 mphScattered Clouds
5:00 AM75.2 °F60.8 °F61 %30.01 in5.6 miENE (60°)8.1 mphScattered Clouds
5:30 AM73.4 °F60.8 °F65 %30.01 in5.6 miNE (50°)10.4 mphScattered Clouds
6:00 AM73.4 °F60.8 °F65 %30.01 in5.6 miNNE (30°)8.1 mphScattered Clouds
6:30 AM73.4 °F60.8 °F65 %30.04 in5.0 miENE (60°)8.1 mphScattered Clouds
7:00 AM73.0 °F59.0 °F53 %30.05 in4.0 miNE (50°)6.9 mphHaze
7:00 AM73.4 °F59.0 °F61 %30.04 in4.3 miNE (50°)6.9 mphScattered Clouds
7:30 AM73.4 °F59.0 °F61 %30.04 in5.0 miNNE (30°)6.9 mphScattered Clouds
8:00 AM73.4 °F57.2 °F57 %30.06 in5.6 miENE (60°)8.1 mphScattered Clouds
8:30 AM75.2 °F57.2 °F53 %30.06 inEast (100°)8.1 mphClear
9:00 AM75.2 °F57.2 °F53 %30.06 inENE (70°)11.5 mphClear
9:30 AM77.0 °F57.2 °F50 %30.06 inEast (90°)5.8 mphClear
10:00 AM78.8 °F57.2 °F47 %30.06 inESE (120°)9.2 mphClear
10:30 AM78.8 °F57.2 °F47 %30.06 inEast (100°)11.5 mphClear
11:00 AM80.6 °F57.2 °F45 %30.06 inEast (90°)13.8 mphClear
11:30 AM80.6 °F59.0 °F48 %30.04 inEast (90°)11.5 mphClear
12:00 PM82.4 °F59.0 °F45 %30.04 inESE (110°)8.1 mphClear
12:30 PM82.4 °F59.0 °F45 %30.01 inNE (40°)5.8 mphClear
1:00 PM85.0 °F58.0 °F30 %29.98 in6.0 miESE (120°)8.1 mphClear
1:00 PM84.2 °F59.0 °F42 %29.98 inESE (120°)8.1 mphClear
1:30 PM86.0 °F57.2 °F37 %29.95 inENE (60°)13.8 mphClear
2:00 PM87.8 °F57.2 °F35 %29.92 inENE (70°)13.8 mphClear
2:30 PM89.6 °F57.2 °F33 %29.89 inESE (110°)9.2 mphClear
3:00 PM89.6 °F57.2 °F33 %29.89 inEast (100°)11.5 mphClear
3:30 PM89.6 °F57.2 °F33 %29.89 inNE (50°)9.2 mphClear
4:00 PM91.4 °F57.2 °F31 %29.89 inNE (40°)11.5 mphClear
4:30 PM91.4 °F57.2 °F31 %29.89 inNE (50°)8.1 mphClear
5:00 PM89.6 °F57.2 °F33 %29.89 inEast (100°)9.2 mphClear
5:30 PM89.6 °F57.2 °F33 %29.92 inEast (90°)8.1 mphClear
6:00 PM87.8 °F59.0 °F38 %29.92 inEast (80°)5.8 mphClear
6:30 PM86.0 °F59.0 °F40 %29.92 inEast (100°)3.5 mphClear
7:00 PM86.0 °F60.0 °F32 %29.95 in6.0 miENE (70°)4.6 mphClear
7:00 PM86.0 °F60.8 °F43 %29.95 inENE (70°)4.6 mphClear
7:30 PM84.2 °F60.8 °F45 %29.95 inEast (100°)4.6 mphClear
8:00 PM84.2 °F60.8 °F45 %29.98 inSSE (150°)3.5 mphClear
8:30 PM82.4 °F60.8 °F48 %29.98 inNE (40°)2.3 mphClear
9:00 PM82.4 °F60.8 °F48 %29.98 in5.6 miENE (70°)4.6 mph
9:30 PM80.6 °F60.8 °F51 %29.98 in5.6 miEast (80°)4.6 mph
10:00 PM80.6 °F60.8 °F51 %29.98 in5.6 miESE (110°)4.6 mph
11:00 PM78.8 °F60.8 °F54 %30.01 in5.6 miENE (70°)3.5 mph
11:30 PM78.8 °F60.8 °F54 %29.98 in5.6 miEast (90°)3.5 mph
Hourly data recorded from VTBD, located miles away from Bangkok, Thailand







STORIES FROM OUR PARTNERS